GFSSW_sfc_wetblb_132.txt.gz
Wetbulb
60.81 61.08 61.21 61.30 61.61 62.46 63.15 63.13 63.50 63.40 64.05 64.38 64.83 64.85 64.86 64.96 63.77 62.19 60.59 63.92 63.51 63.81 62.34 60.51 59.43 57.21 58.56 55.40 55.82 54.60 51.87 49.22 50.28 48.84 50.30 51.79 53.57 54.80 57.05 57.18 58.39 59.89 58.75 60.26 65.34
60.38 60.41 60.60 61.00 60.75 61.46 62.37 62.73 62.86 63.12 63.62 64.13 64.63 63.80 64.57 63.66 61.69 59.17 64.89 64.99 64.27 63.33 60.06 58.40 56.54 57.11 56.20 54.83 55.08 53.58 50.43 50.23 52.75 52.35 51.15 52.05 52.57 54.31 55.18 55.97 56.90 58.14 60.91 61.75 65.04
59.58 59.77 60.21 60.58 60.60 60.71 61.36 62.02 61.87 62.48 63.15 63.45 63.97 63.62 63.83 62.80 57.56 58.08 64.20 65.03 64.51 62.64 60.08 59.44 57.69 55.89 53.74 54.90 53.21 51.56 49.03 52.22 51.76 51.50 51.13 51.54 51.58 55.39 54.49 53.67 56.85 57.15 59.23 61.30 62.93
59.47 59.34 59.75 60.08 60.40 60.56 60.81 61.32 61.51 61.89 62.44 62.99 63.11 63.10 61.70 60.92 49.58 59.53 64.25 64.65 64.36 61.13 58.40 56.39 55.32 53.39 52.25 51.47 53.07 49.72 51.45 52.03 52.21 50.00 50.66 51.04 52.84 52.51 54.94 55.49 56.70 58.87 60.14 61.60 61.91
58.74 58.77 58.84 59.41 59.89 60.31 60.17 60.97 61.33 61.35 61.53 62.28 62.72 62.15 59.93 55.42 55.44 61.53 63.39 62.89 59.85 58.74 57.00 54.78 53.37 52.94 50.73 51.70 51.04 51.28 51.85 51.90 52.91 52.36 52.35 50.22 51.06 52.34 52.61 57.30 55.55 55.83 59.14 60.68 61.77
57.83 58.29 58.18 58.69 59.25 60.06 59.87 60.34 60.90 60.89 61.21 61.83 61.93 62.04 57.64 50.50 60.67 62.77 60.71 59.64 58.43 57.61 56.24 55.45 54.15 54.76 52.55 51.32 50.88 52.04 51.50 52.69 52.32 50.95 50.06 49.03 51.01 49.01 52.10 53.88 54.84 56.66 58.06 60.27 61.28
58.08 57.47 57.75 58.20 58.78 59.33 59.45 59.69 60.39 60.55 60.72 61.62 62.09 60.79 54.73 53.35 61.49 62.05 59.79 58.29 59.26 57.91 55.38 56.88 56.35 52.86 53.95 50.96 52.93 51.90 49.19 51.09 52.12 53.24 51.49 49.39 48.42 47.66 53.88 52.24 52.74 55.63 57.85 59.43 60.95
57.64 57.30 57.33 57.79 58.21 58.45 58.92 59.18 59.63 60.19 60.23 61.28 61.97 58.72 50.80 58.89 62.34 60.75 60.22 58.31 59.40 59.23 57.43 57.95 58.22 54.38 51.80 51.35 50.01 49.83 49.72 46.21 51.39 50.51 51.61 50.72 47.82 53.95 54.26 52.27 52.84 53.75 55.74 58.03 59.71
56.20 56.68 57.06 57.20 57.52 57.91 58.56 58.76 58.98 59.99 59.47 61.09 57.74 54.39 49.25 58.95 56.99 60.45 60.40 56.91 57.77 58.05 58.13 58.33 56.49 52.01 51.43 47.99 45.66 45.25 44.03 44.60 47.30 49.76 48.78 48.33 49.09 54.80 53.57 50.93 51.87 54.00 54.39 55.65 57.45
55.30 55.62 56.73 56.82 57.13 57.30 57.82 58.30 58.41 58.76 57.74 58.31 55.02 50.02 51.13 51.29 56.39 58.08 59.97 58.34 55.04 54.89 53.39 52.87 51.48 47.07 46.93 46.23 40.14 41.98 41.72 42.73 44.23 48.21 46.89 47.93 47.12 52.04 51.12 50.30 52.08 53.67 53.82 53.94 55.64
54.88 55.60 56.27 56.46 56.96 57.60 57.08 53.87 48.46 46.84 51.94 46.94 47.99 47.24 49.95 53.89 57.78 55.15 58.00 55.40 54.34 51.99 45.91 50.10 43.75 38.95 42.18 45.36 44.39 44.54 42.04 40.97 42.77 47.66 45.41 46.44 46.78 48.99 51.85 51.96 51.20 52.77 53.35 53.40 53.90
54.51 54.68 55.86 56.46 56.91 56.91 55.18 48.40 47.98 50.40 43.58 48.76 49.40 48.44 52.09 55.05 49.59 53.01 57.78 51.01 49.72 44.84 47.95 45.52 40.41 44.64 45.54 46.43 45.46 43.42 41.32 39.44 43.34 45.47 44.00 45.98 45.63 49.03 50.59 50.56 51.82 52.72 53.66 53.93 54.22
53.95 54.59 54.67 55.49 56.34 54.53 52.08 50.41 53.03 54.25 42.50 43.26 46.85 48.29 50.55 51.96 48.45 50.02 53.47 51.27 47.45 44.65 45.10 42.19 43.89 47.48 45.80 44.44 43.83 42.68 40.06 39.70 39.75 43.00 45.22 44.00 43.60 46.35 49.95 50.47 51.61 52.85 53.98 55.21 55.94
52.07 53.90 54.03 55.36 52.14 51.69 49.31 52.40 51.87 52.34 37.03 37.73 41.74 45.88 49.80 50.01 45.76 53.09 53.98 50.32 47.07 43.18 44.76 43.84 45.35 44.86 44.00 43.28 44.58 39.91 44.84 43.85 42.04 38.69 35.53 43.55 35.14 44.28 47.06 47.00 47.88 49.61 51.69 52.71 54.07
52.52 53.76 53.66 55.23 49.75 47.42 50.50 52.20 49.55 48.63 23.94 37.99 40.77 47.98 47.97 46.45 47.26 47.81 53.53 49.52 44.54 44.28 45.00 41.62 43.47 43.56 42.59 43.69 45.61 42.62 45.86 44.16 42.71 40.05 39.22 39.89 36.07 41.16 45.94 44.40 47.31 50.29 51.61 51.99 52.85
52.34 53.68 53.12 51.72 50.56 50.66 52.48 50.32 47.09 31.50 22.76 33.45 40.05 41.03 41.45 42.43 42.71 48.34 48.88 50.24 48.24 45.15 44.69 43.68 46.90 46.28 45.15 46.51 46.77 46.36 44.08 43.19 42.83 40.64 33.56 38.66 37.92 39.05 42.98 45.17 47.81 50.29 51.59 52.40 52.75
52.06 52.43 51.02 50.07 46.41 52.13 50.31 45.96 29.76 26.00 34.51 31.74 35.32 39.44 39.49 38.08 39.67 42.55 42.68 42.01 37.95 36.05 36.78 40.77 41.38 44.59 46.55 42.96 45.41 44.38 41.00 33.36 32.03 31.66 30.46 37.18 37.39 40.53 46.14 47.23 47.47 48.88 50.98 52.36 52.96
51.72 51.94 50.59 49.47 50.94 50.82 47.59 37.64 26.66 29.68 30.89 36.61 37.11 39.05 35.82 38.36 38.25 39.65 40.14 38.47 39.68 39.36 37.00 34.20 33.08 41.83 45.51 43.68 41.04 41.41 40.40 33.58 26.15 28.34 32.80 35.25 33.62 40.34 47.29 49.63 50.58 50.30 50.31 50.46 51.03
51.62 48.99 48.13 49.87 52.20 50.43 41.40 29.77 27.55 31.63 34.63 34.52 35.93 33.53 34.56 37.53 37.77 37.94 38.56 37.62 41.08 41.18 35.41 34.79 33.90 43.45 44.38 44.55 45.12 40.15 36.52 42.29 33.08 26.79 31.04 36.07 39.63 43.23 45.45 45.67 46.24 46.85 48.32 49.57 51.04
46.77 44.78 43.96 49.09 51.51 47.00 36.58 31.15 30.97 35.60 37.53 37.53 30.91 34.27 30.72 34.07 34.58 35.59 35.99 39.81 39.54 43.52 42.63 37.71 32.58 39.78 43.21 45.29 44.99 42.93 43.45 34.43 33.78 29.05 27.05 34.19 35.14 37.77 41.20 43.02 46.01 46.47 47.17 48.69 50.19
44.60 38.78 46.06 48.34 49.74 41.46 31.53 31.13 33.78 38.51 39.69 35.90 33.75 33.03 33.86 33.58 35.27 34.23 34.83 37.92 41.12 42.59 44.03 40.99 37.67 35.97 41.39 39.77 38.57 38.94 37.90 37.63 38.23 35.14 30.47 28.91 35.42 44.58 44.84 46.34 45.69 45.99 46.33 46.89 46.72
40.20 32.82 45.44 47.87 37.16 36.46 32.56 34.39 38.42 36.94 39.72 37.30 37.58 35.72 34.43 35.50 33.95 34.29 33.90 37.88 42.10 42.13 39.05 41.83 37.34 32.65 35.95 41.74 42.98 43.09 39.55 39.29 33.12 31.47 33.69 32.70 33.75 44.93 45.67 45.24 43.45 45.70 46.80 45.75 44.79
35.21 38.95 45.85 47.36 31.00 31.58 34.94 35.85 37.84 36.67 37.10 35.65 34.35 36.43 37.06 34.60 30.86 34.87 35.31 38.59 40.06 41.41 38.84 41.26 35.62 30.15 31.21 36.41 40.20 39.06 41.08 41.23 40.35 37.53 33.26 30.97 34.81 45.21 45.79 45.47 46.23 44.14 46.16 46.76 46.04
38.96 32.73 38.77 41.10 39.22 34.50 33.42 33.94 33.56 38.04 35.61 36.75 35.74 37.68 35.36 33.42 33.30 33.16 34.16 37.63 39.41 41.22 42.04 42.87 36.39 32.76 28.73 32.12 36.89 34.50 37.44 40.50 39.43 33.50 34.01 34.86 37.34 42.51 44.43 45.50 47.23 47.43 48.96 49.82 49.84
35.54 31.72 31.93 29.63 33.76 36.60 37.12 34.81 32.59 32.66 36.04 37.34 35.09 35.73 34.31 30.68 31.53 31.19 35.26 35.72 38.72 39.59 40.85 40.35 32.81 34.75 35.97 35.88 36.44 36.37 36.05 37.03 36.46 38.34 33.40 36.86 38.01 41.65 44.62 45.84 46.86 46.82 47.27 47.64 48.34
33.24 32.49 35.00 33.60 36.27 35.47 35.70 33.51 33.11 32.89 34.35 32.15 34.54 35.45 35.62 32.15 33.62 31.13 34.99 36.01 35.22 37.95 38.57 38.98 33.37 34.59 30.79 35.29 35.16 32.77 35.17 35.93 35.86 36.85 37.63 38.50 38.48 45.25 46.71 47.14 46.15 46.55 47.33 47.45 47.87
37.55 39.48 40.07 35.69 35.35 34.21 34.32 34.77 33.23 35.09 34.37 36.61 37.01 35.26 33.76 34.83 38.21 38.88 40.44 39.95 39.32 37.20 36.38 36.31 33.22 30.93 27.53 32.69 32.50 28.66 33.14 34.72 35.96 37.59 37.71 34.55 40.18 44.43 43.66 43.83 43.78 44.38 45.39 45.87 46.84

GFSSW_sfc_wetblb_135.txt.gz
Wetbulb
60.82 61.15 61.43 61.76 61.78 61.99 62.61 63.24 63.46 63.64 63.61 63.87 64.85 64.75 64.94 65.06 64.12 62.42 61.30 64.70 65.33 63.87 62.21 62.44 61.23 59.94 60.55 57.81 58.05 57.87 51.43 49.83 51.58 51.87 53.16 54.63 55.22 57.14 59.23 57.93 59.31 60.75 59.87 61.77 66.28
60.31 60.68 61.00 61.36 61.13 61.41 61.92 62.29 62.72 63.10 63.35 63.64 64.20 64.39 63.82 64.00 62.80 60.86 66.28 65.70 65.67 64.24 61.38 59.62 58.70 58.84 57.17 56.65 56.51 53.90 50.95 51.53 55.08 55.65 54.17 53.99 54.43 55.97 55.91 56.27 57.52 59.21 61.85 63.24 65.23
59.71 59.89 60.52 60.71 60.93 61.05 61.07 61.54 62.17 62.22 62.78 63.23 63.83 64.08 63.18 63.93 58.68 58.55 66.62 64.70 64.90 62.71 62.82 61.07 59.86 57.84 55.35 56.75 55.42 53.97 50.31 53.83 54.38 55.11 54.03 54.11 53.47 55.40 54.69 53.24 56.50 57.37 60.38 62.06 63.64
59.30 59.47 59.82 60.32 60.60 60.98 60.63 60.96 61.46 61.66 62.08 62.49 63.04 63.37 62.15 62.06 48.38 61.10 64.30 65.23 63.99 63.08 59.36 59.99 57.40 54.56 53.46 52.36 55.78 50.84 53.41 53.53 53.96 52.00 52.16 52.51 55.44 53.80 55.22 55.71 58.35 59.61 60.97 62.30 63.04
58.45 58.73 58.86 59.58 60.11 60.60 60.50 60.51 60.90 61.06 61.66 61.89 62.18 62.26 60.54 55.18 55.51 63.03 63.33 63.20 62.60 61.13 59.06 56.44 55.49 54.63 52.30 53.70 54.15 51.95 53.29 54.11 54.60 53.03 53.36 53.15 52.13 53.48 54.95 57.92 57.58 57.22 59.94 61.42 62.37
57.43 58.08 58.35 58.62 59.46 60.27 60.44 60.36 60.77 60.73 61.26 61.60 61.51 61.60 57.54 50.01 62.51 62.99 61.85 59.98 59.90 59.50 58.51 58.24 55.62 56.87 53.80 53.69 52.12 54.31 54.14 54.19 54.36 53.77 53.31 51.24 52.58 51.46 54.29 57.20 57.38 57.30 58.02 60.17 61.52
56.73 57.27 58.01 58.31 58.97 59.52 59.93 60.00 60.22 60.51 60.89 60.80 61.17 60.82 54.97 53.38 62.65 63.66 60.26 59.73 59.17 58.36 55.66 58.04 57.72 54.27 55.66 52.19 54.58 53.65 50.23 52.42 53.24 53.72 52.89 52.62 50.13 50.68 54.52 53.94 54.13 55.66 57.58 58.88 60.47
55.88 56.34 57.49 57.97 58.17 59.04 59.28 59.53 59.54 59.96 60.20 60.50 60.86 58.43 50.77 60.42 63.70 61.59 61.18 58.69 60.20 59.39 57.95 58.54 57.96 55.35 54.39 54.65 52.51 49.92 50.37 46.28 52.31 53.51 53.59 52.53 45.64 53.75 56.21 54.97 53.73 54.98 56.57 57.93 59.43
55.02 55.47 56.75 57.41 57.55 58.27 58.73 59.08 58.79 59.35 60.12 60.05 57.12 55.15 49.31 59.79 57.60 60.92 61.32 56.87 58.16 58.81 58.39 58.38 56.12 51.79 51.74 47.83 46.95 48.43 43.61 45.61 48.35 53.58 52.24 50.69 47.40 52.68 57.13 56.47 54.71 55.14 56.74 57.10 58.02
54.37 54.91 55.79 56.82 57.08 57.81 58.15 58.65 58.36 58.22 56.93 57.68 55.48 50.17 52.28 51.62 57.03 58.76 60.37 58.96 55.77 55.55 54.52 53.26 51.77 47.20 47.13 46.07 40.24 43.17 43.63 45.91 46.54 50.23 50.69 48.99 48.55 51.88 54.33 53.50 54.63 56.04 57.31 57.79 57.49
53.89 54.79 55.36 56.50 57.15 57.84 57.81 56.04 49.33 47.31 50.20 46.17 47.71 48.39 48.00 54.66 58.16 56.21 58.28 56.32 55.01 52.13 46.48 49.00 45.16 40.40 42.98 46.41 44.20 45.45 42.66 44.35 47.78 48.89 46.64 47.64 48.54 50.72 53.12 53.14 53.00 54.03 55.90 56.86 57.15
53.18 53.41 55.07 56.11 57.03 57.38 56.41 50.07 49.51 51.16 43.13 49.30 50.40 51.04 53.04 54.81 49.37 53.34 58.04 51.10 49.99 45.09 47.85 45.24 41.29 46.33 46.41 44.72 42.49 42.02 40.61 41.45 45.83 47.02 46.03 46.63 46.53 50.16 52.07 52.65 53.29 53.07 53.37 54.38 56.93
52.69 53.50 54.51 55.74 56.57 55.38 52.31 51.87 55.74 54.16 42.60 44.81 48.88 48.72 49.36 52.29 48.41 50.13 54.32 51.73 47.22 45.21 45.83 43.12 45.35 48.23 45.92 43.41 41.11 40.06 39.98 40.07 40.93 45.01 47.02 45.12 43.73 46.88 50.98 52.79 53.59 54.32 54.88 54.50 54.66
51.85 50.97 53.63 55.13 52.55 52.93 49.92 54.79 56.01 54.32 37.22 38.13 42.04 46.45 50.17 50.24 44.73 53.27 55.25 51.24 47.45 44.07 45.87 45.04 48.49 45.86 44.50 42.92 43.66 37.90 45.02 43.69 41.92 40.38 36.71 44.18 34.76 44.62 48.17 50.06 52.34 52.89 53.31 54.09 55.29
51.25 49.78 51.18 55.11 51.89 49.29 52.30 54.47 54.90 49.17 24.59 40.66 41.72 51.44 50.79 45.69 47.34 48.64 54.72 49.86 44.80 44.93 45.66 42.69 44.03 43.70 42.52 43.42 44.74 41.57 46.27 44.40 43.57 40.09 39.51 40.56 36.62 42.03 46.97 45.69 48.68 51.26 52.91 54.03 54.54
51.27 50.14 53.35 52.49 50.55 52.16 54.22 52.59 47.48 32.23 25.02 35.09 41.52 42.25 43.05 45.10 45.54 49.29 49.07 49.46 48.96 45.63 46.37 44.15 48.53 47.29 46.20 47.36 46.85 46.51 43.84 43.13 43.33 40.59 34.36 38.60 38.85 40.16 43.68 46.24 48.81 51.47 53.06 54.13 54.99
50.02 50.45 51.24 52.53 46.06 52.76 52.91 46.39 32.60 26.44 34.84 32.43 36.08 40.42 39.96 39.86 41.51 44.12 42.94 41.43 37.31 35.59 37.10 40.99 42.63 45.68 47.15 44.02 46.96 44.45 40.43 33.01 32.05 32.16 31.03 40.59 38.21 41.27 46.56 48.96 49.81 50.49 51.47 53.02 53.85
49.03 50.53 50.50 51.65 51.68 52.09 48.08 38.13 27.16 31.51 32.45 37.63 38.66 39.29 37.11 40.21 40.08 41.55 41.25 36.47 40.33 37.49 36.20 34.91 33.35 42.57 46.45 44.29 41.77 41.41 40.89 33.66 26.94 29.18 33.28 37.46 34.16 40.61 48.20 50.16 51.25 51.59 52.49 52.87 52.44
50.76 50.32 49.15 49.40 51.48 50.57 41.79 29.56 30.68 32.73 36.56 35.58 37.24 34.30 35.20 38.00 39.23 39.18 38.60 38.72 39.75 40.89 34.96 33.81 34.85 44.83 45.71 47.16 45.99 40.69 37.39 42.49 35.56 31.31 32.08 36.87 40.67 45.17 47.21 47.52 48.06 48.50 49.60 50.60 51.71
47.78 45.28 45.08 50.55 51.19 46.75 34.98 31.96 32.18 38.93 39.12 39.48 32.33 36.93 33.12 34.82 35.65 36.12 37.45 40.75 40.12 42.38 44.15 39.08 33.79 41.15 42.87 45.30 45.50 43.50 45.02 35.01 35.86 28.26 26.54 33.84 36.28 37.97 43.21 44.65 46.72 47.42 48.25 49.37 49.40
45.52 38.61 45.47 50.82 47.16 41.51 30.71 31.68 34.04 40.18 41.04 38.30 36.64 35.35 36.28 35.55 37.47 36.50 37.24 40.95 43.41 42.56 43.92 40.97 38.49 36.32 41.66 39.52 37.88 38.94 38.16 38.81 37.87 35.16 30.29 29.46 35.55 44.39 45.57 46.90 45.83 46.27 47.70 48.03 47.09
42.27 32.24 47.66 48.19 33.42 34.86 32.33 34.01 38.47 39.60 42.32 38.73 40.20 38.87 37.58 37.66 36.16 36.81 37.20 40.14 44.99 44.89 39.70 41.73 37.03 33.62 36.53 42.61 44.67 43.04 39.88 39.15 32.76 31.79 34.76 33.29 35.12 46.97 47.11 47.54 45.86 46.66 47.84 47.22 46.60
34.29 37.75 46.70 43.94 30.34 31.63 34.32 36.08 39.12 38.59 38.12 38.36 37.27 39.26 40.11 37.97 34.36 37.99 38.11 41.13 42.40 42.30 41.27 40.82 36.02 30.58 33.19 37.01 41.34 39.46 41.51 41.39 40.17 37.34 33.67 30.78 34.83 45.80 46.87 46.98 47.50 47.53 49.58 50.20 50.02
37.73 32.23 36.99 37.43 34.19 34.79 33.35 34.81 34.84 40.82 38.39 39.39 38.04 39.91 38.39 35.93 36.03 36.60 36.92 38.32 41.12 42.06 42.77 43.47 37.76 34.21 29.90 34.01 38.09 35.45 38.15 40.59 39.44 33.45 33.90 34.58 36.68 41.66 43.60 45.16 47.14 48.35 49.53 49.11 49.84
38.07 31.74 32.99 29.41 31.17 37.11 37.75 36.85 34.16 33.29 38.44 39.39 36.94 37.87 36.12 32.84 32.67 34.24 37.23 37.15 39.83 40.58 42.29 40.88 33.44 35.67 36.41 37.23 37.34 37.06 37.11 37.71 36.67 38.20 33.97 36.62 37.50 41.31 44.33 45.12 47.36 48.51 48.87 48.39 48.62
35.91 34.40 35.04 32.81 35.31 37.26 36.76 34.84 34.63 34.38 36.18 35.00 35.50 37.60 37.47 33.98 34.80 32.70 36.49 36.61 35.78 39.08 39.68 40.82 32.58 35.16 31.86 36.28 36.36 33.53 36.87 37.73 38.02 38.46 38.29 39.17 38.67 45.18 45.89 46.79 46.75 46.79 46.98 46.40 46.05
40.61 42.56 39.35 35.26 35.82 35.40 36.36 36.12 35.16 36.67 38.45 40.27 39.01 37.26 36.23 37.76 40.65 41.51 41.97 41.45 40.39 37.97 37.15 37.15 34.33 31.79 28.27 33.63 33.38 28.82 33.74 35.54 36.84 39.00 38.31 34.01 39.19 44.24 43.75 45.07 45.45 44.34 45.10 45.30 45.69

GFSSW_sfc_wetblb_138.txt.gz
Wetbulb
60.93 61.09 61.62 61.82 61.79 62.21 62.57 62.54 63.29 63.68 63.76 63.55 64.20 64.62 64.79 64.94 64.70 63.06 60.95 64.63 64.92 64.20 62.15 61.61 61.47 60.55 59.33 57.76 57.87 56.46 47.45 45.94 48.83 49.88 50.50 53.97 52.41 54.68 55.54 54.77 55.67 57.87 56.94 60.18 64.57
60.58 60.63 60.86 61.50 61.55 61.78 62.02 62.16 62.39 62.92 63.37 63.54 63.61 64.07 64.20 64.09 62.88 59.48 65.54 66.18 65.67 64.00 61.13 59.44 57.95 59.26 54.92 55.99 55.19 51.05 46.88 48.69 53.04 52.79 51.62 51.98 51.49 53.44 52.55 53.05 53.97 55.87 58.81 63.09 63.39
59.89 60.26 60.31 60.91 61.17 61.49 61.49 61.70 61.80 62.35 62.58 63.02 63.29 63.61 63.54 63.10 58.53 58.53 66.07 65.81 65.10 63.52 61.69 61.91 59.41 57.27 53.76 55.16 53.80 51.93 46.93 51.91 52.62 52.21 52.14 51.94 50.60 53.03 51.16 49.95 53.38 54.60 57.60 61.39 61.23
59.43 59.50 60.04 60.13 60.70 61.29 60.93 61.09 61.46 61.67 61.97 62.32 62.47 62.54 62.36 61.38 48.21 61.15 64.24 66.26 64.63 63.91 59.97 59.48 58.17 53.44 51.61 50.96 54.35 49.24 52.10 52.38 53.07 51.37 50.72 50.52 52.83 51.97 51.42 51.78 54.94 55.87 59.70 60.58 60.31
58.50 58.78 59.17 59.64 60.04 60.76 60.94 60.88 60.96 61.28 61.18 61.68 61.92 61.81 60.43 55.20 54.62 63.31 64.07 64.41 62.91 61.95 58.85 57.48 54.79 53.94 49.98 52.10 52.89 50.35 51.58 53.19 53.27 51.86 50.78 52.76 49.97 49.93 51.30 54.70 54.85 55.32 58.73 58.94 61.00
57.16 57.97 58.37 58.95 59.48 60.19 60.59 60.77 60.69 60.94 60.83 61.30 61.41 61.17 56.49 49.05 61.53 63.50 62.08 61.54 62.36 61.26 59.16 58.32 55.33 55.09 52.50 51.60 50.93 52.64 52.49 52.68 53.26 52.34 52.09 50.16 49.55 50.53 49.97 53.39 53.51 54.29 54.20 57.32 58.98
56.28 56.71 57.60 58.29 58.95 59.36 59.95 60.41 60.43 60.39 60.68 61.14 60.81 59.68 54.33 52.57 61.88 63.23 61.69 60.79 60.50 60.07 57.62 58.55 57.89 54.25 53.63 49.97 54.28 52.09 48.53 50.56 51.17 51.98 50.90 50.76 47.04 47.67 52.28 52.99 51.19 52.81 53.84 55.40 57.52
55.32 55.71 56.42 57.48 58.42 58.76 59.11 59.82 60.04 60.11 60.10 60.73 60.42 57.63 50.23 60.16 61.94 61.29 61.18 59.15 60.22 60.25 58.84 58.59 58.57 55.20 52.43 53.34 51.67 48.43 48.02 43.35 49.77 51.21 51.89 49.68 42.86 49.54 52.74 51.53 49.94 50.49 51.31 53.48 55.70
54.24 54.89 55.63 56.61 57.53 58.08 58.58 58.95 59.05 59.69 59.66 59.51 56.20 53.75 48.15 59.53 56.32 60.14 60.61 56.49 57.53 58.19 58.36 58.47 56.24 51.57 51.93 46.50 44.41 46.41 40.80 42.77 45.76 51.59 50.91 48.32 44.11 50.29 52.39 51.31 50.65 50.35 51.06 52.25 54.13
53.41 54.07 55.10 55.86 56.74 57.55 57.86 58.53 58.49 58.15 56.45 55.87 55.32 49.23 51.36 50.12 56.20 58.37 60.14 58.59 55.75 55.37 53.61 53.21 51.65 46.87 46.26 44.07 37.67 40.62 41.70 43.70 43.86 48.30 49.05 46.81 45.84 48.91 51.40 51.34 50.50 51.26 52.38 52.74 53.39
52.78 53.60 54.59 55.36 56.11 57.34 56.85 54.89 49.47 47.10 50.02 45.71 45.43 46.45 49.60 54.82 57.86 55.90 58.05 55.74 54.95 52.43 46.42 50.23 44.62 41.46 43.22 44.27 44.19 43.44 39.93 41.44 45.42 48.15 45.69 45.29 45.86 47.74 50.51 50.08 48.66 49.52 50.77 51.98 53.40
52.41 53.03 54.08 54.84 55.76 56.64 55.73 49.57 48.43 50.33 42.95 49.08 48.34 49.11 52.08 54.32 49.93 53.52 57.68 51.23 49.82 44.74 47.79 45.33 41.59 45.42 46.67 45.31 43.45 42.54 39.09 38.91 44.08 46.80 43.50 43.27 43.44 46.66 48.97 49.48 49.94 49.94 49.96 49.99 50.93
51.81 52.62 53.11 54.44 55.05 54.15 52.21 51.18 54.01 53.52 43.06 44.67 48.09 48.34 48.97 51.69 47.08 48.01 54.16 51.47 47.16 44.49 45.12 41.36 43.52 47.80 45.09 43.66 41.81 41.22 39.11 39.63 39.83 43.38 44.77 42.63 40.51 43.70 47.81 49.69 50.97 51.90 52.60 52.60 51.85
51.45 51.90 52.62 53.66 50.35 50.69 50.11 54.71 54.29 53.47 36.61 38.65 42.88 45.62 49.24 49.92 44.73 52.52 53.67 51.02 46.93 43.43 44.72 43.96 46.83 45.57 43.63 42.00 42.67 37.91 42.60 42.53 41.72 38.98 35.08 42.80 33.40 39.48 43.80 46.36 48.45 50.21 51.58 52.07 52.26
50.80 51.49 52.45 53.48 48.36 47.35 51.63 55.00 53.99 49.28 23.72 40.02 42.18 51.46 49.71 45.30 46.45 47.06 53.87 49.41 41.73 43.82 43.98 41.36 43.33 43.73 42.54 42.67 44.84 41.71 44.04 42.06 41.90 39.17 38.09 37.63 35.19 37.29 42.56 42.22 45.14 47.65 49.24 50.14 51.01
49.50 51.07 51.82 50.60 50.02 51.14 54.26 53.98 50.01 33.22 24.21 35.74 42.11 41.92 42.38 44.61 44.41 48.09 48.18 49.57 48.80 44.82 45.02 43.33 47.35 46.14 44.55 46.36 45.82 45.57 42.69 42.45 41.99 39.78 32.34 36.21 35.09 34.10 39.56 42.88 45.43 46.90 47.94 49.47 49.88
49.26 50.63 50.03 49.98 43.78 52.80 53.67 48.46 33.09 26.30 36.80 32.91 36.38 40.65 40.03 39.74 41.22 43.13 43.23 41.13 36.58 35.16 37.13 41.56 42.31 44.95 46.11 42.13 44.93 43.95 39.48 31.95 30.79 30.27 29.61 36.84 34.64 37.08 41.39 44.94 45.05 46.04 47.25 48.41 48.63
50.03 49.90 49.55 48.23 49.68 51.25 50.29 39.92 27.75 32.34 33.35 38.64 38.12 39.26 36.17 40.17 39.98 40.75 40.12 37.73 39.27 37.08 35.18 34.33 32.48 41.78 45.32 42.79 40.82 41.05 39.62 32.05 25.52 26.30 27.91 32.62 29.24 35.96 44.11 45.33 46.61 47.42 47.86 47.88 47.55
49.74 46.32 45.92 47.17 48.41 48.62 42.81 29.40 30.68 33.06 36.20 36.40 37.09 33.22 34.71 38.07 38.15 38.30 36.65 37.35 39.90 37.50 34.38 34.32 34.88 44.05 45.19 45.83 44.71 40.78 36.80 40.71 32.18 25.23 26.59 31.57 36.97 41.71 43.56 42.86 44.73 45.43 46.79 46.25 45.73
44.22 42.08 42.91 47.36 48.66 48.07 37.55 32.33 32.10 39.06 39.21 38.55 31.62 35.72 31.58 34.72 34.89 36.19 36.25 39.26 39.01 39.31 41.87 36.30 32.00 40.57 43.83 45.49 44.81 42.15 43.05 33.82 34.61 24.55 22.44 27.75 30.52 33.47 38.43 40.52 43.66 43.41 44.13 44.03 44.64
42.30 34.65 43.66 47.54 49.75 41.70 31.77 31.94 32.95 40.47 41.30 37.23 35.14 34.39 35.05 34.18 35.35 35.04 35.08 38.86 41.87 41.34 43.23 39.99 36.43 34.70 40.60 39.37 38.04 38.63 38.17 38.73 37.54 32.05 26.38 24.23 28.68 39.85 41.21 41.95 41.52 42.91 43.89 43.46 43.14
40.04 30.91 46.49 49.69 34.39 32.05 31.96 32.58 39.02 38.21 41.91 39.86 39.71 37.89 34.91 36.13 34.54 35.11 34.68 37.84 43.86 42.55 38.89 41.17 36.20 32.26 35.62 41.51 42.93 41.95 39.55 38.41 31.73 30.31 31.60 29.80 30.17 43.21 43.05 42.48 43.31 43.14 44.05 44.00 42.77
32.38 37.33 46.39 42.78 29.53 31.20 33.04 34.50 38.32 37.89 38.12 38.78 37.52 39.53 39.80 35.71 32.45 36.19 37.13 40.16 43.73 42.35 39.55 40.36 34.27 29.93 32.16 36.21 41.46 38.07 38.90 40.20 39.23 35.06 30.94 25.96 28.99 41.88 42.60 42.82 43.61 43.16 43.87 44.91 46.36
37.35 31.31 35.03 34.37 33.81 34.20 32.74 32.99 34.20 40.31 38.64 39.36 38.35 39.78 38.18 35.56 35.77 34.92 34.58 37.49 39.33 42.76 43.42 42.92 36.84 32.99 29.62 31.83 36.98 35.55 37.74 39.51 38.12 32.25 30.95 32.44 34.01 39.23 40.72 40.27 42.78 43.83 44.40 44.06 45.27
37.93 31.40 33.21 29.58 31.15 35.02 36.31 35.47 32.15 32.55 38.54 39.23 36.78 37.05 35.98 32.04 31.84 31.22 35.09 35.78 38.47 40.70 41.99 40.58 31.81 34.96 35.86 36.27 35.88 34.55 35.98 37.24 36.01 36.06 32.51 34.30 34.64 38.64 39.04 39.18 41.66 43.83 44.92 44.78 44.78
34.52 32.81 34.99 32.40 33.01 34.56 36.30 33.92 33.03 33.91 35.44 34.40 34.35 37.53 37.10 32.46 33.16 32.00 35.26 34.92 34.45 37.28 37.55 38.98 29.24 32.65 28.30 34.29 34.43 32.76 35.24 35.91 36.28 35.95 35.92 36.47 35.51 40.63 40.66 41.71 42.48 44.18 43.62 41.45 42.42
40.63 41.67 37.48 34.11 32.16 31.82 34.62 34.89 34.11 36.82 37.52 39.26 38.25 36.07 34.85 36.42 38.73 39.75 40.08 39.46 38.38 36.43 36.35 35.43 31.02 27.14 19.92 29.72 30.77 26.53 31.20 33.04 34.45 37.46 36.87 32.35 37.43 39.53 39.71 40.67 40.01 40.66 42.15 42.25 42.48

GFSSW_sfc_wetblb_141.txt.gz
Wetbulb
60.92 61.03 61.46 61.87 62.05 62.35 62.42 62.82 63.03 63.00 63.23 63.49 63.56 63.59 64.52 64.75 64.44 63.58 59.87 63.57 62.98 64.07 62.60 60.38 58.75 58.14 56.78 53.51 53.74 51.68 42.96 41.37 44.52 46.05 46.47 51.04 49.91 52.69 53.90 53.18 53.85 55.73 54.93 58.18 63.36
60.73 60.76 60.94 61.21 61.52 61.81 62.16 62.23 62.26 62.59 62.68 63.02 63.26 63.28 63.94 64.10 62.75 59.79 63.93 66.29 65.79 63.88 60.51 58.19 55.13 55.64 51.35 51.84 51.52 46.98 42.00 44.45 48.38 48.08 46.46 49.09 49.08 50.89 49.91 49.98 50.88 54.15 60.23 62.24 62.59
59.79 60.29 60.60 60.80 60.96 61.53 61.64 61.96 61.76 62.08 62.24 62.19 62.61 62.82 63.24 63.79 57.13 58.30 65.87 66.41 65.25 63.11 60.71 58.64 58.27 54.48 50.23 50.51 49.48 47.75 43.60 48.01 48.64 48.85 49.34 48.60 48.79 50.36 49.32 47.22 51.07 53.33 58.48 60.69 60.54
58.81 59.57 60.19 60.22 60.59 61.12 61.47 61.52 61.54 61.60 61.90 61.71 61.90 61.73 61.64 60.57 46.30 60.22 63.64 66.25 64.99 61.91 58.45 57.39 55.91 50.10 47.65 47.30 51.46 45.75 49.76 49.86 51.04 49.75 49.22 47.62 49.45 48.17 47.95 49.83 52.73 52.95 60.14 60.30 59.78
57.75 58.15 59.16 59.84 60.00 60.66 60.89 61.15 61.20 61.09 61.25 61.29 61.49 61.07 59.02 53.57 53.03 63.09 64.57 65.26 61.97 60.96 57.71 55.57 52.33 51.69 46.85 48.26 49.79 47.06 48.90 51.45 51.65 49.42 48.67 50.20 48.02 47.39 48.28 51.00 52.14 57.02 59.48 59.59 59.67
57.03 57.36 57.89 58.88 59.77 60.28 60.34 60.65 61.02 60.51 60.82 60.97 61.21 60.44 54.76 47.64 59.38 62.44 61.91 61.52 61.34 59.38 57.72 56.60 53.29 52.94 50.09 48.90 47.35 49.28 50.25 50.54 51.19 50.56 49.61 48.46 47.83 47.34 48.69 50.50 49.25 52.81 56.06 57.66 59.45
56.72 56.77 57.11 57.99 58.91 59.69 59.92 59.98 60.45 60.75 60.08 60.47 61.02 58.23 53.60 50.97 59.72 61.54 60.70 60.08 60.64 59.64 56.63 57.83 56.16 51.55 50.54 48.40 52.04 50.53 45.93 47.49 48.31 49.28 48.70 49.09 45.67 45.62 49.77 50.66 50.16 49.99 51.03 54.16 56.92
55.77 56.13 56.50 56.97 58.04 58.70 59.25 59.41 59.61 60.08 59.91 59.77 60.51 54.76 49.33 58.73 58.88 60.43 60.32 57.97 59.16 58.92 57.49 56.75 57.61 54.11 51.58 50.82 48.98 44.93 46.07 40.67 47.06 49.04 49.65 48.23 42.26 47.62 50.44 48.54 48.97 48.65 48.51 51.42 53.52
54.46 54.97 55.75 56.36 56.92 57.91 58.58 59.01 58.55 59.36 59.39 59.12 53.45 49.72 47.20 58.34 54.92 58.73 58.65 55.44 56.70 57.14 57.24 57.82 54.34 49.97 51.34 46.29 43.14 43.93 38.22 39.85 43.13 49.10 47.96 46.32 43.12 48.10 51.25 49.05 47.59 47.69 47.82 48.67 51.18
53.75 54.21 54.89 55.71 56.22 56.96 57.82 58.68 58.13 58.00 55.95 55.48 54.04 44.96 48.85 48.87 54.54 56.65 58.07 57.24 55.44 54.54 52.20 51.10 49.70 47.34 45.16 44.57 38.46 39.50 39.07 40.93 40.03 44.72 46.41 45.33 44.87 46.78 49.51 49.08 47.32 48.25 48.65 49.16 50.05
53.21 53.86 54.49 55.14 55.59 56.86 55.93 54.32 49.80 47.05 49.15 44.27 44.68 43.70 47.32 53.03 55.91 54.53 56.82 54.85 53.76 52.04 46.47 49.68 44.91 41.55 43.30 45.93 44.67 42.51 39.66 37.38 39.78 45.41 44.22 41.99 42.04 44.81 47.68 47.42 46.58 46.85 48.29 50.11 51.64
52.57 53.19 53.97 54.65 55.16 55.77 53.90 48.56 49.42 48.57 42.15 47.26 46.84 46.53 50.81 52.72 47.68 52.01 56.19 50.14 49.24 44.18 47.16 45.35 40.92 45.51 46.60 45.66 44.15 43.04 40.69 39.49 41.13 45.79 44.27 42.29 42.25 45.26 46.54 46.62 47.11 47.29 47.19 47.57 49.60
52.06 52.30 53.12 53.92 54.84 52.86 49.33 49.08 54.01 51.24 41.64 43.68 46.49 46.16 45.71 50.06 45.85 47.85 52.94 50.89 46.80 43.59 43.85 41.36 41.87 45.88 45.06 43.55 41.66 40.50 40.09 39.16 39.00 42.80 44.54 43.07 40.16 42.58 45.90 46.90 49.23 50.10 50.87 50.95 49.44
51.43 51.71 52.37 53.15 49.25 48.48 47.41 51.98 54.29 52.71 36.39 38.04 41.67 44.98 47.09 48.12 42.51 51.18 53.49 49.38 46.75 43.13 42.77 43.59 45.30 44.06 43.07 41.54 41.98 37.54 42.53 41.80 41.00 38.78 34.02 41.97 31.87 38.01 40.97 42.89 45.14 47.53 49.42 50.80 51.69
50.90 51.35 52.06 52.44 44.68 44.89 47.32 52.23 53.68 49.21 23.58 39.05 40.90 49.67 47.89 43.27 44.12 46.06 52.01 49.92 44.05 43.72 43.85 40.99 42.13 41.72 40.94 41.69 43.39 39.46 42.79 41.29 41.08 39.02 38.03 36.21 32.54 34.15 39.87 38.80 42.85 44.78 46.59 49.07 51.11
50.43 50.88 51.56 49.24 46.64 47.14 50.23 51.86 50.15 33.14 23.39 36.10 41.61 40.78 41.51 42.61 42.50 46.42 46.26 48.82 48.30 42.38 41.75 41.54 46.40 44.76 43.53 45.13 45.01 45.21 42.25 41.73 41.83 38.78 31.62 34.90 34.27 33.14 36.10 40.10 40.95 44.23 45.04 46.02 46.26
50.35 50.58 49.37 48.24 42.46 48.42 50.41 47.33 32.65 26.37 35.41 33.46 36.81 39.88 38.47 38.75 39.94 41.47 42.04 41.26 38.73 35.25 34.21 38.36 38.81 45.00 45.73 41.76 44.89 43.53 39.37 31.64 30.00 30.36 27.66 35.51 33.79 36.04 39.91 41.96 42.76 44.07 43.99 44.29 44.53
50.19 50.26 48.70 47.54 48.05 48.91 47.70 37.99 25.80 31.58 29.82 38.05 38.29 38.45 34.91 37.67 38.26 39.07 38.70 37.18 40.24 37.84 36.06 33.65 31.42 41.15 44.13 41.73 40.19 41.08 38.83 31.03 24.97 26.23 26.62 33.02 30.78 34.92 42.86 44.83 45.23 45.64 44.98 43.75 43.84
49.84 45.18 43.68 46.79 48.28 48.40 40.18 27.87 28.25 31.24 36.30 36.12 36.90 32.94 33.87 36.94 36.56 37.66 37.33 37.05 38.51 39.56 32.19 32.34 33.03 42.69 43.71 45.45 43.65 40.08 36.50 38.90 30.12 22.03 24.28 28.93 34.12 39.70 42.90 41.28 42.01 42.86 41.87 41.87 43.04
43.77 41.06 41.00 47.39 48.84 44.32 35.09 30.91 32.24 38.75 38.85 37.73 31.73 34.80 30.30 33.89 32.90 34.88 35.78 37.79 38.32 40.73 40.72 36.74 32.55 39.09 43.01 45.09 44.82 42.16 42.91 34.11 34.57 25.17 21.13 26.03 28.48 31.64 37.09 39.31 41.01 41.12 40.89 42.14 41.99
42.45 36.41 42.14 47.03 46.82 38.74 29.07 30.73 33.02 39.65 41.13 35.81 33.82 33.62 33.51 33.82 34.41 33.69 33.68 36.58 39.87 39.87 41.00 39.25 36.65 34.91 37.76 39.72 38.19 38.94 38.18 38.78 37.48 32.54 25.38 22.35 26.91 36.52 38.70 40.55 40.27 41.32 42.09 42.69 42.39
39.06 29.86 42.63 46.43 33.40 32.33 30.34 32.33 37.16 38.36 41.33 39.47 37.65 34.84 33.65 35.32 33.81 34.36 32.16 35.32 41.44 40.63 37.50 40.38 36.24 29.98 34.55 38.40 39.69 39.99 38.96 38.55 33.02 29.85 30.45 28.36 28.97 39.93 40.47 41.03 41.12 41.20 42.25 41.80 42.41
33.13 34.20 44.32 42.32 28.71 29.49 33.08 34.30 37.33 36.45 38.07 38.35 36.15 37.74 37.77 35.10 32.65 33.98 34.76 37.48 42.24 40.99 38.87 39.85 35.26 26.35 30.55 36.66 38.81 33.98 36.16 36.78 38.36 34.07 29.48 25.72 27.40 39.07 41.38 41.59 41.13 41.92 42.34 43.71 44.78
33.43 30.12 33.42 36.77 34.08 33.18 32.08 32.76 33.81 39.83 38.67 39.20 37.53 38.61 36.26 34.41 34.29 33.90 34.81 36.24 41.94 41.58 42.69 41.79 35.07 29.58 27.54 31.76 37.46 34.66 35.40 35.73 34.02 31.59 32.46 32.40 33.61 37.43 38.26 39.41 40.17 41.62 42.07 42.47 42.70
32.91 31.20 32.56 28.61 31.04 33.46 35.60 35.25 32.06 32.40 38.17 39.01 37.17 36.90 34.98 31.86 31.10 30.78 33.27 34.87 39.10 42.79 41.88 40.55 32.98 32.96 33.35 35.07 35.12 34.21 34.65 37.21 34.44 35.66 31.86 33.99 34.64 38.44 40.33 39.13 39.84 41.54 41.91 40.56 40.23
32.62 32.07 32.91 31.90 33.99 33.09 34.50 33.93 33.14 33.68 34.57 33.73 34.81 36.74 37.32 33.76 33.16 31.13 33.06 33.39 33.86 38.46 39.92 40.18 25.58 32.55 26.95 34.83 34.38 32.17 34.18 35.54 36.57 36.76 35.72 35.49 34.65 39.30 39.22 40.38 40.78 41.32 40.82 38.63 39.43
40.00 39.98 34.96 33.81 31.91 33.61 33.41 32.99 33.67 36.21 35.96 37.47 38.63 37.08 34.18 35.35 38.77 38.70 38.78 38.11 37.41 36.36 34.69 33.58 28.20 20.35 15.04 28.54 30.33 26.00 31.61 32.80 33.67 35.96 36.65 31.94 37.25 39.62 38.36 39.10 35.23 35.85 37.45 36.99 37.16

GFSSW_sfc_wetblb_144.txt.gz
Wetbulb
61.40 61.32 61.80 62.17 62.35 62.57 62.44 62.93 62.99 62.73 63.03 63.14 63.34 63.01 63.52 64.68 64.00 63.33 58.51 62.84 62.98 64.43 63.47 59.66 58.30 56.62 55.60 52.33 52.57 49.58 42.43 40.38 42.69 44.25 45.92 50.19 48.43 51.16 52.66 52.98 52.80 54.72 54.44 56.66 62.38
60.81 60.97 61.02 61.30 61.75 62.09 62.21 62.39 62.35 62.38 62.40 62.64 63.02 62.85 63.13 63.84 62.25 59.54 63.93 66.05 65.82 64.39 61.53 57.08 55.21 55.48 51.27 50.45 50.64 46.04 40.98 43.22 46.58 45.19 44.66 47.46 47.40 49.63 48.81 49.38 51.14 53.88 59.10 60.69 61.98
59.83 60.36 60.67 60.70 60.91 61.51 61.84 61.79 61.91 62.04 62.03 62.04 62.26 62.50 62.87 63.67 55.38 55.79 65.88 66.47 65.77 63.49 60.87 58.64 56.82 53.78 48.96 49.26 48.16 45.95 42.64 46.39 47.66 47.66 47.94 47.74 47.71 47.93 47.68 45.79 50.26 52.35 57.60 59.61 59.40
58.88 59.51 59.99 60.50 60.58 60.91 61.27 61.50 61.55 61.51 61.91 61.57 61.67 62.09 61.98 60.30 44.24 59.06 63.74 66.14 66.10 61.67 58.08 56.76 54.77 49.32 46.55 46.27 49.82 45.03 48.45 48.35 50.04 48.78 48.19 46.50 48.23 47.92 46.33 48.07 50.58 52.07 59.78 59.71 59.49
57.97 58.32 59.06 59.81 60.32 60.71 60.71 61.22 61.38 61.34 61.39 61.23 61.20 61.50 57.88 52.37 52.27 62.35 64.33 64.66 62.61 60.13 58.06 55.44 52.06 50.77 45.95 46.94 48.54 45.91 47.64 49.87 50.31 48.59 47.84 48.88 47.36 46.83 47.67 50.36 50.32 54.32 59.94 59.59 59.67
57.02 57.46 57.83 58.59 59.82 60.38 60.57 60.38 61.02 61.12 60.85 61.08 60.88 61.06 53.72 48.00 58.87 62.29 62.32 61.76 60.64 59.65 56.90 55.69 52.93 53.12 49.14 48.13 46.43 47.87 48.88 49.09 49.41 49.37 48.55 47.42 46.93 47.20 48.00 48.55 48.31 54.85 57.39 58.57 59.31
56.58 57.01 57.30 57.67 58.64 59.68 60.16 60.07 60.14 60.36 60.42 60.71 60.89 58.26 53.58 50.86 59.32 60.67 61.48 60.46 60.27 58.90 56.57 56.75 54.87 51.12 50.99 47.67 50.05 49.15 45.10 46.71 47.11 48.09 47.56 48.04 45.16 44.53 48.88 48.66 48.39 48.05 52.36 56.32 58.84
56.15 56.38 56.83 57.27 57.82 58.50 59.51 59.82 59.59 59.63 59.92 60.00 60.01 53.97 48.16 57.85 57.71 59.23 59.66 57.36 58.71 59.48 57.39 56.62 56.53 52.70 50.36 50.68 47.75 44.45 44.65 39.63 45.80 47.90 48.83 47.13 41.80 46.66 49.88 47.49 47.93 48.38 46.60 49.51 55.09
55.23 55.80 55.92 56.70 56.89 57.36 58.45 59.07 58.79 59.04 60.05 59.14 52.69 49.23 43.95 57.37 54.09 57.42 58.29 55.43 56.13 56.37 56.50 57.19 53.91 50.60 48.78 45.96 43.71 44.64 40.67 39.57 42.23 47.36 46.23 44.86 41.41 46.66 49.61 48.84 47.24 46.95 47.59 46.91 50.07
54.55 54.93 55.77 56.08 56.50 56.62 57.27 58.48 58.20 57.98 56.49 55.09 53.03 44.52 45.81 47.87 53.66 56.19 57.20 56.75 53.83 52.82 51.10 51.23 50.67 46.61 45.89 44.80 37.83 40.38 38.38 41.03 39.60 43.30 43.84 42.24 41.90 44.81 47.23 47.05 46.11 46.31 47.13 47.05 46.86
53.81 54.38 54.74 55.40 56.01 56.57 55.32 52.10 48.65 47.75 49.62 43.58 44.51 42.05 45.04 51.72 55.40 53.74 56.34 54.12 53.04 50.39 46.25 49.60 44.75 41.40 44.10 45.78 43.97 40.60 39.24 38.68 38.48 44.19 42.53 41.16 41.77 43.79 45.94 45.63 45.04 46.30 46.21 46.95 48.83
53.06 53.70 54.38 54.62 55.51 55.74 52.33 47.09 46.75 49.79 42.78 47.24 46.24 45.79 49.31 51.47 47.22 50.97 55.77 48.53 47.70 44.16 46.85 44.62 40.90 43.48 47.18 46.12 44.57 41.36 39.38 40.69 41.90 43.98 42.68 41.51 41.58 44.35 45.96 46.26 47.50 47.10 47.19 47.09 47.27
52.44 52.74 53.46 54.30 54.51 52.48 49.27 48.26 52.09 50.54 41.85 42.87 45.59 44.97 44.47 49.18 44.50 47.34 52.07 49.60 44.41 43.01 44.04 41.05 41.09 45.39 44.60 42.34 42.67 41.92 39.63 39.19 40.02 41.96 43.67 41.74 39.89 41.92 45.99 46.47 47.61 48.89 48.88 49.67 50.07
52.28 52.22 52.80 53.58 49.23 48.48 46.31 50.61 52.42 52.45 35.89 37.62 41.09 44.50 46.15 47.49 42.11 50.01 52.52 49.14 45.97 42.22 41.53 42.60 44.39 42.47 41.96 41.23 42.21 38.41 42.42 41.73 40.28 39.25 34.41 41.35 31.49 37.93 40.19 43.12 44.71 47.09 48.80 49.68 50.86
51.70 51.84 52.32 52.52 44.22 44.15 46.06 51.03 52.77 48.33 23.03 38.42 40.38 48.88 46.77 42.29 43.20 45.78 50.93 47.42 42.46 42.88 42.79 39.41 40.70 40.73 40.80 41.27 43.15 39.53 42.06 40.43 40.16 39.13 37.81 37.75 34.14 35.45 37.56 37.42 41.13 44.45 45.42 46.75 48.42
51.05 51.57 51.70 49.34 45.66 46.25 48.88 50.71 48.83 33.15 23.13 35.40 40.90 40.43 40.92 41.66 41.56 46.88 45.26 47.52 47.11 42.61 42.96 41.48 43.74 43.22 42.06 43.35 43.95 42.94 40.57 39.72 39.14 38.87 31.65 35.60 34.69 32.71 34.92 38.61 39.72 42.79 42.44 43.77 43.52
50.89 51.00 49.66 48.27 42.02 46.85 49.83 46.09 31.02 25.30 36.15 33.29 35.68 39.61 38.43 38.46 39.35 40.78 41.48 40.91 37.75 34.34 34.87 38.83 39.20 41.33 44.91 41.93 43.83 42.39 37.20 31.29 29.96 30.17 28.52 34.47 33.08 35.60 37.57 40.83 41.25 41.69 41.89 41.81 42.41
50.78 50.65 49.01 47.36 47.36 47.85 46.01 36.01 24.43 30.47 29.87 38.06 37.95 38.38 35.44 37.43 38.11 37.56 38.43 35.76 39.98 36.97 33.61 31.32 30.51 38.82 43.02 42.37 39.55 40.32 38.40 32.05 25.07 25.93 28.42 31.62 29.62 34.21 41.60 43.29 43.93 43.86 43.16 42.44 42.84
50.35 45.85 44.60 46.52 47.71 47.39 39.14 26.49 26.72 29.31 35.24 35.40 36.93 34.61 34.28 37.29 36.60 37.86 36.52 35.49 38.21 40.13 30.70 33.44 33.81 40.87 42.68 45.37 43.96 39.43 36.66 40.43 30.13 22.01 24.42 29.20 32.84 37.76 40.16 39.13 40.15 40.31 41.10 41.04 42.63
43.87 42.60 41.40 46.91 48.02 43.67 34.05 28.88 30.12 36.10 37.01 38.02 31.90 35.47 31.20 34.05 32.55 35.07 35.03 37.82 36.36 41.26 40.58 36.43 31.42 38.16 41.42 44.29 44.95 42.01 42.73 34.10 33.74 26.12 23.13 26.98 27.82 32.06 35.18 37.28 39.21 38.49 39.49 40.91 41.57
42.65 36.46 42.06 47.38 46.44 37.45 27.87 29.51 32.83 38.13 40.02 35.55 33.25 34.16 33.85 33.47 33.77 34.05 33.60 34.99 38.80 38.94 41.09 36.86 34.81 32.90 38.69 38.92 37.64 39.67 37.08 38.38 37.12 30.00 25.09 21.35 25.46 34.21 37.70 38.24 38.29 38.78 40.13 40.73 41.70
37.05 30.26 42.66 46.21 33.15 32.07 29.69 32.50 37.44 36.17 40.71 39.51 38.44 34.42 33.80 35.47 33.76 33.57 31.52 35.58 40.20 40.66 36.64 38.20 35.67 31.19 34.17 39.40 40.51 38.35 37.83 35.92 32.15 30.24 29.15 27.35 27.76 38.29 38.58 38.47 38.89 38.72 40.09 40.35 42.00
33.93 35.03 43.63 41.66 27.09 29.04 32.16 32.67 35.70 36.72 37.28 38.12 36.04 37.19 36.25 34.36 32.37 34.99 34.22 37.57 40.45 39.79 37.81 38.72 34.21 27.07 30.84 36.05 38.48 35.25 35.81 35.92 34.36 31.96 30.46 28.69 29.57 38.40 40.24 37.92 39.50 39.91 40.47 42.44 44.05
34.99 29.71 35.24 36.65 34.89 31.14 29.45 30.29 31.71 37.36 37.68 38.52 37.29 36.77 35.21 33.92 33.47 33.43 32.75 37.16 40.44 40.73 42.68 41.25 33.83 28.51 25.52 27.08 34.52 32.71 34.54 35.91 34.45 30.69 31.87 31.94 33.07 37.16 38.64 39.07 40.99 42.26 42.47 40.92 39.22
31.99 27.76 31.32 27.43 29.34 32.22 31.96 30.63 30.31 32.43 36.31 39.73 36.73 36.02 34.63 31.78 30.93 31.66 32.59 36.00 39.83 41.71 40.08 38.34 30.28 30.71 31.24 33.64 34.86 35.48 34.91 34.92 32.93 34.38 31.68 32.77 32.26 35.01 39.44 40.45 41.55 42.24 40.20 39.33 38.32
30.12 30.49 31.76 28.33 31.23 29.82 32.01 28.92 30.75 33.21 35.49 33.22 34.20 36.64 36.90 33.05 34.02 30.83 32.63 34.54 37.46 40.40 38.57 39.57 30.11 31.02 26.93 32.73 32.58 30.28 34.43 35.97 34.56 35.23 34.65 34.10 33.49 39.72 41.92 41.20 36.75 37.14 36.57 35.34 35.05
39.71 37.57 35.66 33.73 31.07 29.93 30.03 30.94 30.58 35.10 36.47 38.29 37.17 36.53 35.67 36.81 38.12 40.36 40.23 39.23 39.98 39.06 38.01 36.71 28.81 29.24 28.10 30.52 32.12 27.43 30.74 33.55 34.61 36.84 36.62 32.45 36.29 38.89 36.86 34.27 33.09 33.17 33.52 32.96 32.47

GFSSW_sfc_wetblb_147.txt.gz
Wetbulb
61.75 61.46 61.60 62.40 62.24 62.34 62.40 62.74 62.84 62.45 62.60 62.77 63.12 62.73 63.15 64.53 63.77 62.89 57.73 61.69 62.93 65.06 64.14 59.35 58.01 56.78 54.45 51.38 51.44 47.98 42.10 39.73 42.30 42.62 44.08 47.70 47.81 50.29 51.74 51.50 52.82 54.38 53.37 55.90 61.14
61.34 61.24 61.42 61.34 61.82 62.00 62.15 62.14 62.41 62.29 62.21 62.63 62.88 62.56 62.75 63.55 61.77 59.08 63.85 65.57 66.01 64.62 61.35 56.53 54.67 54.95 50.68 49.77 49.99 45.33 40.89 42.81 45.70 44.87 43.79 45.66 46.00 46.02 48.00 49.67 50.46 52.14 56.60 59.08 60.82
60.15 60.65 60.89 60.81 61.00 61.51 61.67 61.68 61.62 62.01 61.91 62.01 62.28 62.34 62.62 62.26 54.00 54.09 65.27 66.01 66.24 63.79 60.58 58.67 57.11 52.95 47.94 48.74 47.21 44.29 41.97 45.39 46.51 46.44 46.67 46.52 45.63 46.59 46.41 44.94 49.34 50.50 54.63 58.28 58.01
59.13 59.80 59.95 60.47 60.42 60.91 61.21 61.61 61.33 61.45 61.80 61.52 61.80 61.98 62.06 58.71 43.77 57.38 63.63 66.22 66.15 62.15 57.74 56.42 54.40 49.29 46.50 45.77 48.49 43.65 46.58 46.86 48.93 47.80 46.92 45.42 47.04 45.67 45.65 47.77 50.13 49.81 55.71 58.46 58.56
58.16 58.46 59.29 59.33 60.29 60.60 60.65 60.77 61.31 61.29 61.33 61.29 61.17 61.55 57.04 52.11 51.68 60.58 64.09 63.95 63.00 59.15 57.51 54.94 51.72 49.86 45.22 45.78 47.22 45.34 46.30 48.28 49.03 47.64 47.20 47.60 46.35 46.16 46.67 49.60 49.51 51.07 57.63 58.41 59.10
57.57 57.90 58.25 58.94 59.31 60.43 60.56 60.29 60.65 60.92 61.12 61.13 60.81 60.64 53.37 47.18 57.42 60.89 62.34 61.95 60.65 59.54 56.82 55.44 52.52 52.66 48.71 47.38 45.84 46.74 47.57 47.89 48.18 48.46 47.87 46.31 45.23 46.72 47.55 47.87 47.46 52.38 55.40 57.13 58.37
56.59 56.93 57.43 57.73 58.79 59.69 60.11 60.31 59.96 60.50 60.88 60.69 60.57 57.71 53.09 49.72 57.95 59.81 61.34 59.70 59.63 58.41 57.03 55.85 54.50 50.53 49.93 46.88 49.27 47.84 44.83 45.98 45.97 47.26 47.24 46.99 44.02 43.52 48.61 47.40 47.77 47.71 47.84 55.21 57.61
56.49 56.11 56.36 57.32 57.41 58.36 59.65 59.95 59.33 59.31 60.11 60.21 59.86 53.73 45.53 56.58 56.65 58.09 59.02 56.68 58.60 58.66 57.00 55.91 55.43 51.37 48.63 49.23 46.58 43.87 43.08 39.29 44.37 46.50 47.62 46.48 40.58 45.55 49.10 46.48 47.30 47.94 47.17 46.65 51.60
55.57 56.02 56.13 56.38 56.78 57.09 58.46 59.23 58.63 58.90 59.97 58.87 52.45 48.11 42.62 56.30 53.22 55.86 57.93 55.32 55.37 55.81 56.01 57.06 53.35 50.95 50.03 45.97 41.64 41.31 38.09 37.76 41.24 45.31 44.97 43.93 39.85 45.88 47.27 46.95 45.66 45.55 46.58 47.33 47.03
54.81 55.32 55.65 55.82 56.10 57.01 57.04 58.33 58.37 57.71 56.75 54.71 52.35 44.58 45.02 47.24 53.22 55.54 56.47 56.40 53.42 52.18 50.48 50.22 50.69 47.67 46.58 44.84 38.13 40.24 36.72 39.08 38.85 42.33 43.05 42.14 42.10 44.20 46.07 46.07 45.21 45.06 45.28 46.71 47.39
54.65 55.24 55.35 55.17 55.60 56.60 55.06 52.41 48.40 47.65 49.96 43.80 44.40 42.41 43.02 50.56 54.73 53.07 55.91 53.79 52.41 51.74 45.79 49.47 43.51 41.49 43.89 46.07 45.23 42.76 38.14 37.70 37.24 43.29 41.33 40.51 41.03 43.44 45.72 44.93 44.52 45.72 46.07 46.74 48.68
54.14 54.63 55.23 55.61 55.66 55.59 52.48 46.61 46.70 48.29 43.54 47.41 46.03 45.17 47.82 51.79 46.95 50.60 54.92 48.07 47.99 43.72 46.71 44.26 40.63 42.21 46.32 45.71 44.38 42.81 41.16 39.96 41.92 43.78 43.96 40.95 41.25 44.31 45.31 45.91 47.19 47.05 47.81 48.71 49.18
53.75 53.97 54.53 54.70 55.02 52.73 49.17 47.69 51.40 48.87 42.49 43.71 45.70 44.95 44.20 48.29 44.13 46.95 51.56 48.16 44.18 43.55 43.54 40.35 40.42 44.61 43.64 41.59 41.08 40.57 38.99 39.62 40.33 41.85 41.83 40.92 39.44 41.46 44.59 46.11 47.64 48.26 48.80 49.63 49.92
53.59 53.49 53.59 53.56 49.70 48.27 46.72 50.58 51.61 51.97 35.83 38.10 41.58 43.82 44.90 46.75 41.11 48.97 51.95 47.80 44.03 41.89 41.56 41.70 43.62 42.38 41.19 40.28 41.39 37.72 41.76 41.02 39.66 39.13 34.33 38.70 30.82 37.67 39.33 40.13 42.55 44.59 46.13 47.59 48.33
52.77 53.04 53.35 52.65 46.84 45.49 47.24 51.41 51.63 46.99 22.67 38.06 40.92 48.93 45.35 41.73 42.36 45.10 49.38 45.99 40.83 41.30 41.30 37.54 39.81 40.99 39.81 41.00 42.55 38.76 41.95 40.53 39.12 37.04 37.71 37.85 34.20 33.02 36.38 38.56 41.56 42.81 43.77 43.50 46.26
51.88 52.22 52.74 49.40 45.94 45.92 49.69 51.05 48.83 32.14 22.76 34.93 40.60 40.22 40.07 39.74 40.25 46.49 45.82 46.49 44.80 41.57 40.76 38.77 42.12 41.89 40.82 42.19 43.47 42.09 39.46 38.73 39.82 38.40 30.95 34.43 34.30 33.78 36.43 38.53 38.36 40.35 42.01 41.58 42.09
51.40 51.79 49.90 48.84 41.58 47.48 49.76 45.61 30.68 24.60 34.37 33.15 35.87 39.66 37.93 37.29 39.56 41.03 40.23 39.79 36.44 33.67 35.00 39.58 39.51 41.77 43.12 40.00 42.66 41.30 37.41 31.24 29.45 29.49 28.12 32.64 32.89 35.08 39.35 39.20 40.81 40.92 39.17 39.71 40.46
50.60 51.06 49.45 47.17 46.72 47.84 46.06 36.26 23.63 29.12 31.55 37.89 36.63 37.76 34.91 36.87 37.83 37.69 37.69 35.17 38.81 34.19 32.40 31.72 30.02 39.08 42.19 41.62 39.49 38.99 38.50 31.28 23.94 25.16 26.25 30.95 29.46 34.23 41.01 43.99 45.31 42.34 42.02 40.27 39.98
50.26 46.58 45.33 45.80 47.90 47.32 38.97 26.82 26.88 29.07 33.21 34.92 35.79 32.91 33.84 36.78 36.13 37.12 35.42 34.81 37.68 37.91 29.88 31.48 31.89 38.22 40.12 42.62 41.54 37.03 36.30 39.85 31.04 24.57 25.23 29.35 32.18 37.20 39.53 38.67 37.97 39.68 39.82 39.62 40.47
43.21 42.84 41.71 46.94 47.73 43.82 33.75 28.63 27.85 35.67 36.15 37.03 30.78 34.86 30.99 33.76 33.57 35.07 34.92 37.05 35.58 39.96 37.42 34.56 26.05 36.28 38.67 42.39 42.94 41.87 42.17 33.62 33.88 26.30 24.43 26.45 26.91 31.14 34.11 36.40 36.90 37.27 38.61 38.77 39.94
41.41 35.39 40.54 47.04 45.89 37.09 27.76 25.89 30.51 37.00 37.41 35.36 34.41 33.44 33.81 33.09 34.06 33.43 33.08 34.46 38.74 38.36 38.95 36.17 32.42 31.08 38.91 37.80 35.97 38.93 34.93 35.27 36.16 32.26 26.08 21.29 25.51 32.93 35.60 37.28 37.21 38.23 38.79 39.31 39.48
39.12 30.04 42.56 45.96 33.22 31.90 29.21 31.25 36.16 35.17 38.92 37.92 35.91 33.64 33.07 34.45 33.57 33.53 32.09 35.53 39.79 40.16 36.33 37.31 32.91 24.30 32.31 37.39 39.05 39.27 36.97 36.05 30.52 30.22 31.45 28.34 28.60 36.29 35.41 36.20 38.27 37.67 40.55 40.54 38.27
34.13 35.00 43.90 41.71 26.89 28.79 32.00 32.70 33.96 34.06 36.38 36.26 35.57 35.64 34.72 34.36 32.31 35.00 35.94 37.14 39.62 39.43 36.81 37.95 34.18 26.98 28.50 35.66 38.30 36.14 37.24 38.53 35.42 32.29 29.79 28.73 31.45 40.74 40.64 40.12 40.74 39.28 38.21 38.34 37.35
34.23 28.58 35.40 36.63 33.39 31.07 27.15 29.55 30.85 36.32 35.09 38.80 37.23 35.76 33.78 34.39 34.80 33.59 34.98 37.27 39.75 40.31 42.11 41.05 32.47 27.89 24.28 25.50 32.83 32.02 34.16 36.41 34.94 30.25 28.86 32.19 32.39 37.08 38.07 39.04 40.57 41.51 39.37 37.86 37.06
33.77 28.20 32.77 28.01 29.43 29.59 31.55 31.77 28.74 31.16 36.22 36.92 35.93 36.10 34.01 31.25 31.69 30.08 33.27 36.42 38.21 41.35 39.82 37.65 28.96 29.74 30.31 31.34 32.32 32.80 32.93 34.62 33.06 34.10 29.13 30.92 32.37 36.41 36.74 38.86 40.37 42.81 40.82 36.48 34.70
30.85 30.75 31.70 27.67 30.00 28.51 29.89 28.76 29.16 30.25 33.22 32.53 32.85 36.09 35.74 31.86 34.01 31.78 33.59 35.50 34.97 38.22 38.64 38.69 30.35 30.33 25.80 31.60 32.11 32.33 34.51 34.40 34.82 34.15 32.78 33.45 32.74 38.49 39.40 40.91 39.09 38.39 35.84 33.10 31.59
37.08 37.19 30.56 31.09 29.51 27.35 27.61 29.10 30.94 32.22 34.53 36.01 35.03 34.29 34.78 36.27 39.18 38.38 39.43 39.73 39.06 37.76 37.33 36.62 32.08 30.27 27.52 31.50 29.98 24.77 30.17 34.36 35.25 36.02 34.49 31.36 34.59 37.63 38.25 36.41 33.53 32.35 31.22 28.92 28.44